[[[{"header":{"parameterUnit":"kt","parameterCategory":2,"dx":1,"dy":1,"la1":30.253999710083008,"la2":30.299108505249023,"lo1":-89.0895004272461,"lo2":-89.04439544677734,"nx":28,"ny":28,"refTime":"2022-09-25T21:00:00:Z","depth":0,"parameterNumber":1,"parameterNumberName":"U-component_of_WINDS"},"data":[4.1458,4.156,4.1568,4.169,4.1718,4.1804,4.1838,4.1883,4.1921,4.2026,4.2088,4.2109,4.2152,4.2231,4.23,4.2308,4.2339,4.237,4.2374,4.2223,4.2203,4.2184,4.2159,4.2376,4.2376,4.253,4.2532,4.2533,4.1353,4.1381,4.1447,4.1516,4.1573,4.1549,4.1603,4.1653,4.1731,4.1778,4.1839,4.1932,4.2008,4.2041,4.2116,4.2167,4.2161,4.2187,4.2185,4.2192,4.2031,4.2005,4.2192,4.2192,4.2192,4.2191,4.2191,4.2191,4.1164,4.1224,4.1269,4.1341,4.1377,4.1424,4.1484,4.1506,4.1571,4.1647,4.1644,4.1733,4.1783,4.1876,4.191,4.1981,4.1953,4.1985,4.1994,4.2002,4.2012,4.1794,4.1994,4.1993,4.1993,4.1992,4.1992,0,4.1028,4.103,4.1092,4.1158,4.121,4.1261,4.131,4.1347,4.1354,4.1408,4.1487,4.1534,4.1629,4.1706,4.1777,4.1805,4.1786,4.1784,4.1807,4.1811,4.1806,4.1813,4.1552,4.1778,4.1776,4.1775,4.1774,4.1773,4.084,4.0908,4.0957,4.1001,4.1028,4.1097,4.114,4.114,4.1187,4.1248,4.1302,4.1377,4.1438,4.1565,4.159,4.1661,4.1653,4.1739,4.1663,4.1665,4.1658,4.1655,4.1663,4.1754,4.1757,4.1758,4.176,0,4.0734,4.0744,4.0851,4.0893,4.0905,4.0978,4.1015,4.1075,4.1088,4.1174,4.1194,4.1216,4.1294,4.1304,4.1395,4.1399,4.1526,4.1514,4.151,4.1509,4.1589,4.1582,4.1842,4.1877,4.165,4.1652,4.1654,0,4.0579,4.0667,4.0677,4.0738,4.0838,4.0834,4.0934,4.0954,4.0993,4.1061,4.1038,4.1102,4.1105,4.1172,4.1177,4.1281,4.1297,4.1307,4.1308,4.1311,4.131,4.1337,4.1327,4.1303,4.1302,4.13,4.1299,0,4.0413,4.052,4.062,4.0646,4.0698,4.0746,4.077,4.0812,4.0854,4.091,4.0938,4.1004,4.1041,4.1094,4.1099,4.1048,4.1226,4.1156,4.1236,4.1237,4.1275,4.1273,4.1499,4.1298,4.1297,4.1297,4.1296,0,4.0288,4.0342,4.0483,4.0527,4.0555,4.062,4.0683,4.0741,4.0788,4.0794,4.0838,4.0824,4.0912,4.0844,4.0968,4.09,4.0938,4.0955,4.0961,4.097,4.0893,4.1022,4.1234,4.1258,4.0979,4.0977,4.0974,0,4.0099,4.0242,4.0238,4.0373,4.044,4.0409,4.0482,4.0523,4.0537,4.0598,4.0614,4.0684,4.0634,4.0657,4.0717,4.0737,4.0825,4.0725,4.0819,4.0822,4.0809,4.1004,4.1034,4.1186,4.094,4.0944,4.0946,0,3.9952,4.001,4.0034,4.0064,4.0113,4.0169,4.0252,4.0318,4.036,4.0406,4.0478,4.0574,4.0542,4.0579,4.0573,4.0635,4.0766,4.0592,4.0593,4.0625,4.0922,4.0951,4.0977,4.0749,4.0753,4.0756,4.092,0,3.9767,3.9837,3.9901,3.9963,4.0007,4.0089,4.0095,4.0141,4.0131,4.0142,4.0246,4.028,4.0348,4.0378,4.0367,4.0504,4.0483,4.0446,4.038,4.0507,4.0561,4.0583,4.0299,4.0297,4.0296,4.0294,0,0,3.9584,3.9684,3.9674,3.9752,3.9788,3.9752,3.9841,3.9872,3.9936,3.9963,3.9926,4.0066,4.0095,4.0221,4.0261,4.0287,4.0314,4.0267,4.0446,4.0463,4.0478,4.0536,4.0559,4.0291,4.0291,4.029,4.029,0,3.9517,3.9542,3.9627,3.9659,3.9704,3.971,3.9731,3.977,3.9781,3.988,3.985,3.9913,4.0023,4.0059,4.0091,4.0253,4.0227,4.0273,4.0358,4.0429,4.0448,4.0465,4.0526,4.0547,4.0286,4.0286,4.0286,0,3.9374,3.9401,3.9442,3.9518,3.9547,3.9616,3.9548,3.9622,3.9674,3.963,3.9729,3.9749,3.9796,3.9912,3.9964,3.9931,4.0149,4.0079,4.009,4.0096,4.0165,4.0188,4.0208,3.9941,3.994,3.9938,0,0,3.9316,3.9379,3.9407,3.9504,3.9524,3.9534,3.957,3.9562,3.9602,3.9619,3.9642,3.9684,3.9749,3.9792,3.9852,3.9978,3.9989,4.0037,4.0053,4.0066,4.008,4.0152,4.0175,3.9934,3.9934,3.9934,0,0,3.9288,3.9322,3.9303,3.9415,3.9455,3.9488,3.9549,3.9526,3.958,3.9571,3.9562,3.9573,3.9681,3.9701,3.9638,3.9829,3.9763,3.9778,3.9812,3.9832,3.9848,3.9842,3.9573,0,0,0,0,0,3.922,3.9318,3.93,3.9319,3.9415,3.9498,3.9511,3.9504,3.9458,3.9507,3.9523,3.9492,3.9666,3.961,3.9631,3.97,3.9874,3.9885,3.9895,3.9968,3.9989,4.0007,0,0,0,0,0,0,3.9227,3.9251,3.9297,3.9335,3.9356,3.9495,3.9416,3.9417,3.9453,3.9446,3.949,3.9493,3.949,3.9599,3.9618,3.9684,3.9567,3.9878,3.9887,3.9895,3.9975,3.9993,4.0008,0,0,0,0,0,3.9233,3.9252,3.9406,3.9334,3.9352,3.9367,3.9412,3.9412,3.944,3.9464,3.9466,3.9432,3.9492,3.9507,3.961,3.9676,3.9554,3.9561,3.9884,3.9891,3.9897,3.9984,0,0,0,0,0,0,3.9238,3.9254,3.941,3.9415,3.9295,3.9359,3.9369,3.9408,3.9456,3.946,3.9405,3.9399,3.9495,3.9506,3.9518,3.9674,3.9543,3.955,3.9555,3.9889,3.9895,3.99,0,0,0,0,0,0,3.9244,3.9259,3.9413,3.9364,3.9364,3.9352,3.9361,3.9446,3.9457,3.9395,3.9391,3.9402,3.9478,3.9506,3.9515,3.9649,3.9535,3.9542,3.9547,3.955,3.9894,3.9898,0,0,0,0,0,0,3.925,3.9263,3.9362,3.9362,3.9362,3.9424,3.9428,3.9527,3.9414,3.9393,3.9404,3.9399,3.9478,3.9487,3.9513,3.9643,3.9648,3.9535,3.954,3.9543,3.9545,0,0,0,0,0,0,0,3.9255,3.9169,3.9377,3.9361,3.9361,3.9466,3.9468,3.947,3.9413,3.9409,3.9405,3.9401,3.9497,3.9504,3.9512,3.9639,0,0,3.9535,3.9538,0,0,0,0,0,0,0,0,3.9163,3.9167,3.9377,3.9378,3.9379,3.9467,3.9468,3.9469,3.9412,3.9409,3.9406,3.9403,3.9499,3.9505,3.9511,0,0,0,0,0,0,0,0,0,0,0,0,0,0,0,3.9377,3.9378,0,3.9467,3.9468,3.9469,3.9412,3.9409,3.9406,3.9404,3.95,3.9505,3.951,0,0,0,0,0,0,0,0,0,0,0,0,0,0,0,0,0,0,0,0,0,0,0,0,0,0,0,0,0,0,0,0,0,0,0,0,0,0,0,0,0,0,0,0,0,0,0,0,0,0,0,0,0,0,0,0,0,0,0,0,0,0,0,0,0,0,0,0,0]}],[{"header":{"parameterUnit":"kt","parameterCategory":2,"dx":1,"dy":1,"la1":30.253999710083008,"la2":30.299108505249023,"lo1":-89.0895004272461,"lo2":-89.04439544677734,"nx":28,"ny":28,"refTime":"2022-09-25T21:00:00:Z","depth":0,"parameterNumber":2,"parameterNumberName":"V-component_of_WINDS"},"data":[-3.2366,-3.2413,-3.2436,-3.2501,-3.2532,-3.2581,-3.2605,-3.2639,-3.2672,-3.2733,-3.2772,-3.2799,-3.2841,-3.2893,-3.2937,-3.2948,-3.2965,-3.2967,-3.298,-3.2952,-3.295,-3.2947,-3.2938,-3.297,-3.297,-3.3007,-3.3007,-3.3007,-3.2349,-3.2381,-3.2421,-3.2475,-3.251,-3.2523,-3.2567,-3.2596,-3.2638,-3.2679,-3.2717,-3.2772,-3.2818,-3.2859,-3.2907,-3.2931,-3.2939,-3.2943,-3.2941,-3.2948,-3.2919,-3.2909,-3.2935,-3.2935,-3.2935,-3.2935,-3.2935,-3.2935,-3.2325,-3.2352,-3.2398,-3.2441,-3.2474,-3.251,-3.254,-3.2572,-3.2611,-3.2663,-3.2681,-3.2729,-3.2773,-3.2841,-3.2868,-3.2907,-3.2907,-3.2917,-3.292,-3.2922,-3.2923,-3.2872,-3.2916,-3.2916,-3.2916,-3.2916,-3.2916,0,-3.2315,-3.2332,-3.237,-3.2417,-3.2449,-3.2487,-3.2524,-3.2543,-3.2585,-3.2615,-3.2661,-3.2691,-3.275,-3.2796,-3.2845,-3.2871,-3.2887,-3.289,-3.2897,-3.289,-3.2879,-3.2888,-3.2841,-3.2888,-3.2888,-3.2887,-3.2887,-3.2887,-3.2294,-3.2321,-3.2377,-3.2402,-3.2428,-3.2466,-3.2493,-3.2527,-3.2555,-3.2606,-3.2628,-3.2674,-3.2712,-3.2781,-3.2817,-3.2861,-3.2868,-3.2885,-3.2875,-3.2868,-3.2871,-3.287,-3.2874,-3.2886,-3.2886,-3.2886,-3.2886,0,-3.228,-3.2315,-3.2363,-3.2416,-3.243,-3.2457,-3.2502,-3.253,-3.2557,-3.2598,-3.261,-3.2652,-3.2696,-3.2729,-3.2785,-3.2801,-3.2849,-3.2854,-3.2836,-3.2839,-3.2858,-3.2857,-3.2911,-3.2921,-3.2886,-3.2886,-3.2887,0,-3.2276,-3.2309,-3.2359,-3.2385,-3.2425,-3.2457,-3.2495,-3.2522,-3.2559,-3.2592,-3.2614,-3.2644,-3.2681,-3.2717,-3.274,-3.2785,-3.2794,-3.281,-3.2816,-3.2809,-3.2807,-3.2824,-3.2823,-3.2825,-3.2825,-3.2825,-3.2825,0,-3.2251,-3.2316,-3.2358,-3.2378,-3.2436,-3.2456,-3.2481,-3.2521,-3.2547,-3.2585,-3.2603,-3.2644,-3.2668,-3.27,-3.273,-3.2722,-3.2784,-3.278,-3.28,-3.28,-3.2812,-3.2811,-3.2851,-3.2824,-3.2824,-3.2824,-3.2824,0,-3.2252,-3.229,-3.2346,-3.2395,-3.2411,-3.2438,-3.2482,-3.2513,-3.2553,-3.257,-3.26,-3.2618,-3.2657,-3.2651,-3.2707,-3.269,-3.2712,-3.2729,-3.2731,-3.2737,-3.273,-3.275,-3.2783,-3.2789,-3.2743,-3.2743,-3.2742,0,-3.2217,-3.2281,-3.2308,-3.236,-3.2394,-3.2417,-3.2448,-3.2483,-3.2507,-3.254,-3.2567,-3.2603,-3.2605,-3.2621,-3.2644,-3.2673,-3.2696,-3.2671,-3.272,-3.2721,-3.2711,-3.2741,-3.2738,-3.2772,-3.2734,-3.2735,-3.2735,0,-3.2192,-3.2261,-3.2268,-3.2292,-3.2342,-3.2369,-3.2405,-3.2448,-3.2468,-3.2503,-3.2534,-3.2584,-3.2589,-3.2614,-3.2632,-3.2654,-3.2682,-3.2656,-3.2657,-3.2661,-3.2731,-3.2729,-3.2735,-3.2689,-3.269,-3.2691,-3.2729,0,-3.219,-3.2225,-3.2245,-3.2295,-3.2321,-3.2354,-3.2387,-3.2411,-3.2426,-3.245,-3.2495,-3.2529,-3.2571,-3.2585,-3.2598,-3.2639,-3.2637,-3.264,-3.2637,-3.2656,-3.2669,-3.2674,-3.2614,-3.2614,-3.2615,-3.2615,0,0,-3.2148,-3.2198,-3.2225,-3.226,-3.2284,-3.2305,-3.2337,-3.2363,-3.2413,-3.2429,-3.2427,-3.2503,-3.253,-3.2581,-3.2589,-3.2605,-3.2616,-3.2607,-3.2646,-3.2649,-3.2652,-3.2666,-3.2671,-3.2615,-3.2615,-3.2615,-3.2615,0,-3.2154,-3.2181,-3.2212,-3.224,-3.2281,-3.2305,-3.2312,-3.2357,-3.2373,-3.2416,-3.2432,-3.2463,-3.252,-3.2548,-3.2569,-3.2602,-3.2612,-3.2612,-3.2619,-3.2645,-3.2649,-3.2652,-3.2665,-3.267,-3.2615,-3.2615,-3.2615,0,-3.2137,-3.217,-3.2188,-3.2241,-3.2268,-3.2301,-3.2306,-3.2339,-3.2364,-3.2384,-3.2425,-3.2448,-3.2487,-3.2529,-3.2549,-3.2548,-3.2608,-3.2593,-3.2593,-3.2596,-3.2623,-3.2627,-3.263,-3.2585,-3.2585,-3.2585,0,0,-3.2138,-3.2169,-3.2213,-3.2244,-3.226,-3.2295,-3.2315,-3.2331,-3.2366,-3.2379,-3.2408,-3.2441,-3.2475,-3.2497,-3.253,-3.2571,-3.2582,-3.2588,-3.2589,-3.259,-3.2594,-3.262,-3.2624,-3.2584,-3.2584,-3.2584,0,0,-3.2138,-3.219,-3.2199,-3.2239,-3.2272,-3.2317,-3.2335,-3.2346,-3.2379,-3.2379,-3.2408,-3.2418,-3.2457,-3.2478,-3.2463,-3.253,-3.2525,-3.2529,-3.2514,-3.2516,-3.2518,-3.2512,-3.2472,0,0,0,0,0,-3.216,-3.2184,-3.2192,-3.2203,-3.2269,-3.2313,-3.2321,-3.2346,-3.2343,-3.2357,-3.2384,-3.2393,-3.2477,-3.2464,-3.2475,-3.2491,-3.2573,-3.2575,-3.2576,-3.2567,-3.2569,-3.257,0,0,0,0,0,0,-3.2165,-3.2178,-3.2191,-3.2237,-3.2252,-3.2312,-3.2313,-3.2321,-3.2342,-3.2344,-3.2388,-3.2394,-3.2416,-3.246,-3.2469,-3.2485,-3.2469,-3.2573,-3.2575,-3.2577,-3.2568,-3.2569,-3.2571,0,0,0,0,0,-3.2168,-3.218,-3.2278,-3.2237,-3.225,-3.2288,-3.2312,-3.2319,-3.2336,-3.2376,-3.2383,-3.2352,-3.2415,-3.2425,-3.2466,-3.248,-3.2462,-3.2466,-3.2574,-3.2576,-3.2577,-3.2568,0,0,0,0,0,0,-3.2171,-3.2186,-3.2281,-3.2286,-3.2229,-3.2286,-3.2295,-3.2317,-3.2367,-3.2374,-3.2342,-3.2343,-3.2415,-3.2423,-3.243,-3.2477,-3.2457,-3.2461,-3.2463,-3.2575,-3.2577,-3.2577,0,0,0,0,0,0,-3.218,-3.219,-3.2284,-3.2272,-3.2276,-3.2283,-3.2291,-3.2329,-3.2368,-3.2331,-3.2332,-3.2342,-3.2404,-3.2422,-3.2427,-3.2485,-3.2453,-3.2457,-3.2459,-3.246,-3.2576,-3.2577,0,0,0,0,0,0,-3.2184,-3.2193,-3.2271,-3.2274,-3.2278,-3.2335,-3.2316,-3.2382,-3.2358,-3.2328,-3.2357,-3.2356,-3.2403,-3.2409,-3.2425,-3.248,-3.2483,-3.2453,-3.2456,-3.2457,-3.2458,0,0,0,0,0,0,0,-3.2188,-3.2126,-3.2252,-3.2276,-3.2279,-3.2332,-3.2333,-3.2334,-3.2358,-3.2358,-3.2357,-3.2356,-3.2435,-3.2438,-3.2442,-3.2476,0,0,-3.2453,-3.2455,0,0,0,0,0,0,0,0,-3.2123,-3.2125,-3.2252,-3.2253,-3.2254,-3.2332,-3.2333,-3.2334,-3.2358,-3.2358,-3.2357,-3.2357,-3.2436,-3.2438,-3.2441,0,0,0,0,0,0,0,0,0,0,0,0,0,0,0,-3.2252,-3.2253,0,-3.2332,-3.2333,-3.2334,-3.2358,-3.2358,-3.2357,-3.2357,-3.2436,-3.2439,-3.2441,0,0,0,0,0,0,0,0,0,0,0,0,0,0,0,0,0,0,0,0,0,0,0,0,0,0,0,0,0,0,0,0,0,0,0,0,0,0,0,0,0,0,0,0,0,0,0,0,0,0,0,0,0,0,0,0,0,0,0,0,0,0,0,0,0,0,0,0,0]}]]]